Weather History for KLKR - January, 2013

Change the Weather History Date:

Friday, January 25, 2013

  Actual Average (KUZA) Record (KUZA)
Temperature  
Mean Temperature 24 °F -  
Max Temperature 28 °F 52 °F 77 °F (1950)
Min Temperature 21 °F 34 °F 12 °F (2003)
Degree Days  
Heating Degree Days 40    
Moisture  
Dew Point 15 °F    
Average Humidity 67    
Maximum Humidity 100    
Minimum Humidity 34    
Precipitation  
Precipitation 0.03 in - - ()
Sea Level Pressure  
Sea Level Pressure 30.33 in    
Wind  
Wind Speed 0 mph (NE)    
Max Wind Speed 5 mph    
Max Gust Speed -    
Visibility 10 miles    
Events Rain    
Averages and records for this station are not official NWS values.
T = Trace of Precipitation, MM = Missing Value Source: NWS Daily Summary

Daily Weather History Graph

Daily Weather History Graph

Search for Another Location

Airport or City:

Trip Planner

Search our weather history database for the weather conditions in past years. The results will help you decide how hot, cold, wet, or windy it might be!

Date:

Astronomy

Jan. 25, 2013 Rise Set
Actual Time 7:26 AM EST 5:45 PM EST
Civil Twilight 6:59 AM EST 6:12 PM EST
Nautical Twilight 6:28 AM EST 6:43 PM EST
Astronomical Twilight 5:58 AM EST 7:13 PM EST
Moon 4:41 PM EST (1/25) 6:04 AM EST (1/25)
Length of Visible Light 11h 13m
Length of Day
10h 19m
Waxing Gibbous, 98% of the Moon is Illuminated
Jan 25
Waxing Gibbous
Jan 26
Full
Feb 3
Last Quarter
Feb 10
New
Feb 17
First Quarter

Hourly Weather History & Observations

Time (EST) Temp. Windchill Dew Point Humidity Pressure Visibility Wind Dir Wind Speed Gust Speed Precip Events Conditions
12:15 AM 26.6 °F - 6.8 °F 43% 30.50 in 10.0 mi Calm Calm - N/A Rain Light Freezing Rain
12:35 AM 24.8 °F - 6.8 °F 46% 30.50 in 10.0 mi Calm Calm - N/A Rain Light Freezing Rain
1:15 AM 24.8 °F - 8.6 °F 50% 30.51 in 10.0 mi Calm Calm - N/A Rain Light Freezing Rain
1:35 AM 24.8 °F - 6.8 °F 46% 30.51 in 10.0 mi Calm Calm - N/A Rain Light Freezing Rain
1:55 AM 24.8 °F - 8.6 °F 50% 30.50 in 10.0 mi Calm Calm - N/A Rain Light Freezing Rain
2:15 AM 23.0 °F - 6.8 °F 50% 30.51 in 10.0 mi Calm Calm - N/A Rain Light Freezing Rain
2:35 AM 23.0 °F - 8.6 °F 54% 30.51 in 10.0 mi Calm Calm - N/A Rain Light Freezing Rain
3:15 AM 21.2 °F - 10.4 °F 63% 30.51 in 10.0 mi Calm Calm - N/A Rain Light Freezing Rain
3:35 AM 21.2 °F - 10.4 °F 63% 30.51 in 10.0 mi Calm Calm - N/A Rain Light Freezing Rain
4:15 AM 23.0 °F - 10.4 °F 59% 30.48 in 10.0 mi Calm Calm - N/A Rain Light Freezing Rain
4:35 AM 21.2 °F - 10.4 °F 63% 30.47 in 10.0 mi Calm Calm - N/A Rain Light Freezing Rain
4:55 AM 21.2 °F - 10.4 °F 63% 30.48 in 10.0 mi Calm Calm - N/A Rain Light Freezing Rain
5:15 AM 21.2 °F - 12.2 °F 68% 30.49 in 10.0 mi Calm Calm - N/A Rain Light Freezing Rain
5:35 AM 23.0 °F - 12.2 °F 63% 30.47 in 10.0 mi Calm Calm - N/A Rain Light Freezing Rain
5:55 AM 23.0 °F - 10.4 °F 59% 30.46 in 10.0 mi Calm Calm - N/A Rain Light Freezing Rain
6:15 AM 23.0 °F - 14.0 °F 68% 30.47 in 10.0 mi Calm Calm - N/A Rain Light Freezing Rain
6:35 AM 24.8 °F - 14.0 °F 64% 30.47 in 10.0 mi Calm Calm - N/A Rain Light Freezing Rain
6:55 AM 24.8 °F - 12.2 °F 59% 30.47 in 10.0 mi Calm Calm - N/A Rain Light Freezing Rain
7:15 AM 24.8 °F - 8.6 °F 50% 30.46 in 10.0 mi Calm Calm - N/A Rain Light Freezing Rain
7:35 AM 26.6 °F - 8.6 °F 47% 30.46 in 10.0 mi Calm Calm - N/A Rain Light Freezing Rain
7:55 AM 26.6 °F - 6.8 °F 43% 30.45 in 10.0 mi Calm Calm - N/A Rain Light Freezing Rain
8:15 AM 26.6 °F 22.6 °F 6.8 °F 43% 30.46 in 10.0 mi East 3.5 mph - N/A Rain Light Freezing Rain
8:35 AM 26.6 °F 21.2 °F 5.0 °F 40% 30.45 in 10.0 mi SE 4.6 mph - N/A Rain Light Freezing Rain
8:55 AM 26.6 °F - 5.0 °F 40% 30.45 in 10.0 mi Calm Calm - N/A Rain Light Freezing Rain
9:15 AM 26.6 °F - 6.8 °F 43% 30.44 in 10.0 mi Calm Calm - N/A Rain Light Freezing Rain
9:35 AM 26.6 °F - 5.0 °F 40% 30.44 in 10.0 mi Calm Calm - N/A Rain Light Freezing Rain
9:55 AM 26.6 °F - 5.0 °F 40% 30.45 in 10.0 mi Calm Calm - N/A Rain Light Freezing Rain
10:15 AM 28.4 °F - 5.0 °F 37% 30.44 in 10.0 mi Calm Calm - N/A Rain Light Freezing Rain
10:35 AM 28.4 °F - 5.0 °F 37% 30.42 in 10.0 mi Calm Calm - N/A Rain Light Freezing Rain
10:55 AM 28.4 °F - 3.2 °F 34% 30.42 in 10.0 mi Calm Calm - N/A Rain Light Freezing Rain
11:15 AM 28.4 °F - 5.0 °F 37% 30.40 in 10.0 mi Calm Calm - N/A Rain Light Freezing Rain
11:35 AM 28.4 °F - 5.0 °F 37% 30.39 in 10.0 mi Calm Calm - N/A Rain Light Freezing Rain
11:55 AM 28.4 °F - 6.8 °F 40% 30.35 in 10.0 mi Calm Calm - N/A Rain Light Freezing Rain
12:15 PM 28.4 °F 24.6 °F 8.6 °F 43% 30.35 in 10.0 mi North 3.5 mph - N/A Rain Light Freezing Rain
12:35 PM 28.4 °F - 8.6 °F 43% 30.33 in 10.0 mi Calm Calm - N/A Rain Light Freezing Rain
12:55 PM 28.4 °F - 8.6 °F 43% 30.31 in 10.0 mi Calm Calm - N/A Rain Light Freezing Rain
1:15 PM 26.6 °F - 17.6 °F 69% 30.27 in 4.0 mi Calm Calm - N/A Rain Light Freezing Rain
1:35 PM 26.6 °F - 19.4 °F 74% 30.26 in 10.0 mi Calm Calm - N/A Rain Light Freezing Rain
1:55 PM 26.6 °F - 17.6 °F 69% 30.24 in 8.0 mi Calm Calm - N/A Rain Light Freezing Rain
2:15 PM 26.6 °F - 15.8 °F 64% 30.25 in 10.0 mi Calm Calm - N/A Rain Light Freezing Rain
2:35 PM 26.6 °F - 15.8 °F 64% 30.25 in 10.0 mi Calm Calm - N/A Rain Light Freezing Rain
2:55 PM 26.6 °F 22.6 °F 17.6 °F 69% 30.25 in 10.0 mi NW 3.5 mph - N/A Rain Light Freezing Rain
3:15 PM 26.6 °F - 17.6 °F 69% 30.26 in 8.0 mi Calm Calm - N/A Rain Light Freezing Rain
3:35 PM 26.6 °F - 19.4 °F 74% 30.24 in - Calm Calm - N/A Rain Light Freezing Rain
3:55 PM 26.6 °F - 23.0 °F 86% 30.24 in - Calm Calm - 0.02 in Rain Light Freezing Rain
4:15 PM 26.6 °F - 24.8 °F 93% 30.21 in - Calm Calm - 0.01 in Rain Light Freezing Rain
4:35 PM 26.6 °F - 24.8 °F 93% 30.20 in - Calm Calm - 0.01 in Rain Light Freezing Rain
4:55 PM 26.6 °F - 24.8 °F 93% 30.18 in - Calm Calm - 0.01 in Rain Light Freezing Rain
5:15 PM 26.6 °F - 24.8 °F 93% 30.19 in 10.0 mi Calm Calm - N/A Rain Light Freezing Rain
5:35 PM 26.6 °F - 24.8 °F 93% 30.19 in 10.0 mi Calm Calm - N/A Rain Light Freezing Rain
5:55 PM 26.6 °F - 24.8 °F 93% 30.18 in 10.0 mi Calm Calm - N/A Rain Light Freezing Rain
6:15 PM 26.6 °F - 24.8 °F 93% 30.18 in 10.0 mi Calm Calm - N/A Rain Light Freezing Rain
6:35 PM 26.6 °F - 24.8 °F 93% 30.19 in 10.0 mi Calm Calm - N/A Rain Light Freezing Rain
6:55 PM 26.6 °F - 26.6 °F 100% 30.18 in 10.0 mi Calm Calm - N/A Rain Light Freezing Rain
7:15 PM 26.6 °F - 26.6 °F 100% 30.18 in 10.0 mi Calm Calm - N/A Rain Light Freezing Rain
7:35 PM 26.6 °F - 26.6 °F 100% 30.16 in 10.0 mi Calm Calm - N/A Rain Light Freezing Rain
7:55 PM 26.6 °F - 26.6 °F 100% 30.16 in 10.0 mi Calm Calm - N/A Rain Light Freezing Rain
8:15 PM 26.6 °F - 24.8 °F 93% 30.16 in 10.0 mi Calm Calm - N/A Rain Light Freezing Rain
8:35 PM 26.6 °F - 26.6 °F 100% 30.16 in 10.0 mi Calm Calm - N/A Rain Light Freezing Rain
9:15 PM 28.4 °F - 26.6 °F 93% 30.16 in 10.0 mi Calm Calm - N/A Rain Light Freezing Rain
9:35 PM 28.4 °F - 26.6 °F 93% 30.16 in 10.0 mi Calm Calm - N/A Rain Light Freezing Rain
10:15 PM 28.4 °F - 26.6 °F 93% 30.15 in 10.0 mi Calm Calm - N/A Rain Light Freezing Rain
10:35 PM 28.4 °F - 26.6 °F 93% 30.14 in 10.0 mi Calm Calm - N/A Rain Light Freezing Rain
11:15 PM 28.4 °F - 28.4 °F 100% 30.14 in 10.0 mi Calm Calm - N/A Rain Light Freezing Rain
11:35 PM 28.4 °F - 28.4 °F 100% 30.14 in 10.0 mi Calm Calm - N/A Rain Light Freezing Rain
11:55 PM 28.4 °F - 28.4 °F 100% 30.14 in 10.0 mi Calm Calm - N/A Rain Light Freezing Rain